Hourly Weather Roundup
Issued by NWS Central Illinois

Home | Current Version | Previous Version | Graphics & Text | Print | Product List | Glossary On
Versions: 1 2 3 4 5 6 7 8 9 10 11 12 13 14 15 16 17 18 19 20 21 22 23 24 25 26 27 28 29 30 31 32 33 34 35 36 37 38 39 40 41 42 43 44 45 46 47 48 49 50
000
NZUS43 KILX 241810
HWRILX

AREA WEATHER ROUNDUP
NATIONAL WEATHER SERVICE, LINCOLN IL
100 PM CDT SUN MAY 24 2015


CITY           SKY/WX    TMP DP  RH WIND       PRES   REMARKS
BLOOMINGTON    PTSUNNY   80  66  62 S23       30.05F HX  82
6HR MIN TEMP:  66; 6HR MAX TEMP:  81; 6HR PCP:  0.01;

CHAMPAIGN      PTSUNNY   85  60  42 S22G31    30.07F HX  85
6HR MIN TEMP:  66; 6HR MAX TEMP:  86;

DANVILLE       CLOUDY    83  60  46 S13G18    30.08F HX  83
6HR MIN TEMP:  64; 6HR MAX TEMP:  83;

DECATUR        NOT AVBL
EFFINGHAM      MOSUNNY   83  59  44 S15G22    30.10F HX  82
FLORA          SUNNY     83  62  49 S18       30.10F HX  83
6HR MIN TEMP:  64; 6HR MAX TEMP:  83;

GALESBURG      CLOUDY    75  64  67 S12G17    29.97F
JACKSONVILLE   PTSUNNY   80  65  59 SE22G29   29.99F HX  82
6HR MIN TEMP:  68; 6HR MAX TEMP:  81;

LACON          PTSUNNY   79  62  55 S9        29.99F HX  80
6HR MIN TEMP:  60; 6HR MAX TEMP:  80;

LAWRENCEVILLE  NOT AVBL
LITCHFIELD     MOSUNNY   80  64  56 S21G29    30.03F HX  82
$$


CITY           SKY/WX    TMP DP  RH WIND       PRES   REMARKS
LINCOLN        PTSUNNY   83  63  50 S20G26    30.00F HX  84
6HR MIN TEMP:  67; 6HR MAX TEMP:  83;

MACOMB         CLOUDY    77  64  64 S21       29.98F
MATTOON        NOT AVBL
MT CARMEL AP   PTSUNNY   84  52  32 S14G20    30.12F HX  82
OLNEY-NOBLE AP PTSUNNY   81  63  54 S13G18    30.11F HX  82
PARIS          MOSUNNY   84  60  44 S16G23    30.12F HX  84
6HR MIN TEMP:  66; 6HR MAX TEMP:  84;

PEORIA         LGT RAIN  73  68  83 S12G26    30.01F
PONTIAC        LGT RAIN  81  62  52 S25       30.05F HX  82
RANTOUL        PTSUNNY   85  61  44 S20G25    30.08F HX  85
6HR MIN TEMP:  66; 6HR MAX TEMP:  86;

ROBINSON       PTSUNNY   83  58  42 S14G20    30.14S HX  82
6HR MIN TEMP:  64; 6HR MAX TEMP:  83;

SPRINGFIELD    MOSUNNY   86  66  51 S20G26    30.01F HX  88
6HR MIN TEMP:  66; 6HR MAX TEMP:  86; 6HR PCP: TRACE;

TAYLORVILLE    MOSUNNY   81  64  57 S17G28    30.04F HX  82
$$

...REGIONAL REPORTS...


CITY           SKY/WX    TMP DP  RH WIND       PRES   REMARKS
CHICAGO O`HARE CLOUDY    71  51  49 E10       30.09F
KANKAKEE       PTSUNNY   81  61  49 SE12      30.07F HX  82
MOLINE         LGT RAIN  67  63  87 E8        29.97F
MOUNT VERNON   NOT AVBL
PITTSFIELD     CLOUDY    79  64  59 S13G24    29.97F HX  81
QUINCY         NOT AVBL
ROCKFORD       NOT AVBL
$$


CITY           SKY/WX    TMP DP  RH WIND       PRES   REMARKS
BURLINGTON     CLOUDY    73  67  81 S7        29.94F
CEDAR RAPIDS   LGT RAIN  61  61 100 E13       29.94F FOG
DES MOINES     NOT AVBL
KIRKSVILLE     NOT AVBL
OTTUMWA        NOT AVBL
ST LOUIS       CLOUDY    82  64  54 S20G32    30.00F HX  83
$$


CITY           SKY/WX    TMP DP  RH WIND       PRES   REMARKS
TERRE HAUTE    NOT AVBL
EVANSVILLE     NOT AVBL
INDIANAPOLIS   NOT AVBL
LAFAYETTE      NOT AVBL
MADISON        NOT AVBL
MILWAUKEE      CLOUDY    63  56  78 NE8       30.14F
$$




USA.gov is the U.S. government's official web portal to all federal, state and local government web resources and services.